Wind_Speed
41 39 38 38 38 37 37 37 34 33 33 33 33 34 34 35 36 36 35 34 33 32 32 32 32 32 31 31 30 30 30 30 30 30 31 32 33 34 34 34 33 33 34 35 35 35 35 35 35 33 32 32 33 34 36 35 33 33 33 33 32 31 31 30 29 28 28 27 27 26 24 21 20 21 22 25 28 29 28 25 22 21 21 21 22 23 24
37 39 40 40 40 39 39 39 37 34 34 34 34 35 35 36 37 37 37 36 36 35 35 34 34 34 34 34 33 34 34 34 34 34 35 36 37 37 37 37 38 37 38 38 38 38 38 38 37 36 35 36 38 40 42 42 40 38 37 36 35 34 35 35 34 33 32 30 29 28 27 24 23 25 25 24 27 29 28 26 25 26 29 30 31 32 33
30 32 35 38 40 39 36 37 37 37 37 36 36 35 36 36 37 38 38 39 39 38 38 37 37 37 37 37 37 38 38 38 38 37 38 39 40 40 41 41 42 42 42 42 42 41 41 41 40 39 39 41 43 44 44 45 44 42 41 40 40 39 39 39 38 37 35 33 31 31 30 28 27 30 30 28 30 31 31 31 32 35 37 35 33 35 37
30 30 31 34 37 37 35 34 35 37 37 37 37 37 37 37 38 39 40 40 41 40 40 40 40 40 40 40 40 41 41 41 42 42 42 43 43 44 44 44 45 46 46 45 45 45 44 43 43 42 43 44 44 45 45 44 43 43 43 42 42 41 41 41 41 41 40 39 37 35 34 32 32 32 33 32 32 34 35 35 33 31 33 33 33 34 35
34 33 33 35 37 38 38 38 37 36 37 38 39 39 39 39 40 40 41 42 42 42 42 42 43 43 43 43 43 43 44 44 45 46 46 47 46 47 47 48 48 48 48 48 48 47 46 46 45 44 44 45 45 45 45 44 44 43 43 43 43 43 43 42 42 42 42 42 41 40 39 38 38 37 35 34 34 35 36 35 34 33 34 35 34 33 31
36 36 36 36 38 39 39 39 38 37 38 38 39 40 41 42 42 42 43 44 44 44 45 45 45 46 46 46 46 46 46 46 47 48 48 49 49 49 49 49 49 50 49 47 45 45 45 45 45 44 44 45 45 45 45 44 44 45 45 46 45 44 43 41 41 41 42 42 43 42 42 41 41 40 38 37 37 37 37 37 36 37 36 35 34 32 31
38 38 38 39 40 40 40 40 39 38 38 38 38 38 40 41 43 43 43 44 45 46 46 46 46 46 46 46 46 47 47 47 48 48 49 49 50 50 50 50 50 50 48 45 43 44 45 45 44 44 43 43 43 43 44 44 45 45 47 48 48 46 44 43 42 42 42 42 43 43 43 43 43 42 41 40 39 38 38 38 38 37 37 36 35 34 33
41 41 41 41 42 42 41 42 42 42 41 40 40 40 40 42 43 44 45 46 47 47 47 47 47 48 48 48 48 48 48 49 49 49 49 49 49 49 49 50 50 51 51 49 49 49 49 47 45 44 43 42 41 41 41 42 43 44 46 48 48 48 47 45 45 45 45 44 44 45 45 46 45 45 45 44 43 41 40 40 40 39 38 36 36 36 37
42 41 41 42 43 44 44 44 43 43 43 42 42 42 42 43 44 45 46 47 48 49 49 49 50 50 51 51 51 51 50 50 50 50 50 49 49 49 50 51 53 54 54 54 53 52 51 49 48 47 45 41 39 40 41 41 42 42 43 43 44 44 45 44 44 45 45 46 46 46 46 46 46 46 46 46 46 45 44 42 41 40 38 38 38 39 40
41 41 41 42 43 44 43 42 42 42 42 41 41 42 42 43 44 45 46 47 48 48 48 49 50 50 51 51 52 52 52 52 52 52 52 52 53 53 54 54 55 55 56 56 54 51 49 49 49 49 48 45 43 42 42 41 41 41 41 41 41 41 42 42 42 42 43 45 46 46 46 46 46 46 46 46 46 46 45 44 42 41 40 40 40 41 41
42 42 42 43 43 43 43 43 43 43 43 43 43 44 45 45 45 45 45 46 46 46 47 48 48 49 50 51 52 53 53 54 54 54 55 56 56 57 57 56 56 56 56 56 56 53 53 53 52 52 52 52 52 51 50 47 44 42 41 41 41 41 42 42 42 43 44 44 45 45 46 46 46 46 46 45 45 45 45 44 44 43 42 42 42 42 43
43 43 43 44 44 45 45 45 45 46 47 47 47 47 47 46 45 45 45 45 45 45 45 45 46 47 49 49 50 51 52 53 54 54 55 56 56 56 56 56 56 56 56 56 56 56 56 56 55 55 55 54 55 56 56 55 52 49 45 43 42 41 40 40 41 43 44 44 45 45 45 46 47 47 46 45 45 45 46 46 46 45 45 44 44 45 46
44 44 45 46 46 47 47 47 48 48 48 48 48 48 47 45 44 44 44 44 45 45 45 44 45 46 48 49 50 51 51 52 53 54 55 55 56 56 56 55 55 55 55 56 56 56 56 56 56 56 56 56 56 56 57 57 56 55 53 51 50 48 47 46 45 44 44 43 43 43 44 46 48 47 46 46 47 47 47 48 48 48 49 48 49 49 50
46 46 47 48 48 48 48 48 48 46 44 45 46 46 45 44 44 44 45 45 46 46 46 46 46 47 49 50 51 52 53 54 54 55 56 57 58 58 58 58 57 56 56 56 56 56 56 56 56 56 56 56 56 57 57 58 58 58 58 58 58 57 56 55 54 52 49 45 43 44 46 48 49 49 48 48 49 49 50 51 52 52 53 54 54 54 52
46 47 47 47 47 48 47 46 45 43 42 43 43 43 44 44 44 45 45 45 46 46 47 47 47 47 48 49 49 50 51 53 54 55 56 58 58 59 60 60 60 60 59 58 58 58 58 58 58 58 58 58 58 58 58 58 59 60 61 61 61 61 61 61 61 61 59 57 55 54 55 54 53 51 51 51 51 53 54 56 57 58 58 59 58 56 54
41 42 42 43 43 43 42 41 39 39 40 40 38 38 40 41 42 44 44 44 44 45 46 47 47 47 47 48 48 49 50 51 52 53 55 57 58 59 60 61 61 62 62 62 61 61 61 61 61 62 62 62 62 61 61 61 61 61 62 63 63 63 64 64 64 64 64 63 62 63 63 63 61 60 59 59 60 61 62 63 64 64 63 61 59 56 54
34 34 34 36 37 38 38 37 37 38 39 40 40 40 40 42 44 46 46 45 44 45 46 47 48 49 50 51 52 53 53 54 55 56 57 58 59 59 60 61 62 63 64 64 65 65 65 65 65 65 66 66 66 66 66 66 66 66 66 66 65 66 66 66 66 66 66 65 64 63 64 64 64 64 64 64 65 66 66 65 64 62 60 58 56 54 53
35 35 34 34 35 34 34 34 35 37 40 42 43 45 46 47 47 48 48 48 49 49 50 50 51 52 53 53 54 55 56 56 57 58 58 59 59 60 61 62 63 65 65 66 67 67 67 68 68 67 68 68 68 68 69 69 70 70 70 69 68 68 68 67 67 67 67 67 66 65 64 63 61 60 59 59 59 59 59 60 59 57 55 53 52 52 52
36 38 39 40 40 39 38 36 36 37 39 41 42 43 45 46 47 49 52 53 53 53 52 52 52 52 52 52 53 53 54 55 56 56 57 57 58 59 59 60 61 62 63 64 64 65 66 66 67 68 68 69 68 68 68 69 69 70 70 70 70 69 69 69 69 69 68 68 67 65 65 64 63 61 60 58 57 57 57 58 57 56 54 52 52 52 52
34 36 38 40 42 43 44 45 45 45 45 46 47 48 49 50 51 53 55 54 53 51 50 50 50 50 50 51 51 52 52 53 54 55 56 56 57 58 59 59 60 60 60 61 62 62 62 63 64 65 66 66 66 66 66 67 68 68 69 69 69 69 69 69 70 70 70 69 68 65 65 64 64 63 62 62 61 59 59 58 58 56 55 54 53 53 52
31 33 34 36 37 39 41 43 45 46 48 49 50 50 51 51 51 51 51 49 49 48 49 49 49 50 51 51 52 52 53 54 55 56 56 57 57 58 59 60 60 61 61 61 61 62 62 62 63 64 64 64 64 65 65 66 67 67 67 67 67 67 66 67 68 68 68 69 68 66 65 65 64 63 62 62 61 61 60 59 57 56 55 54 53 52 52
27 28 30 32 33 34 36 37 39 40 41 43 44 45 45 46 46 46 46 46 47 47 48 49 50 50 51 52 53 53 55 56 57 57 58 58 59 60 60 61 62 62 63 63 63 63 63 64 64 64 64 64 64 65 65 66 67 67 66 65 65 65 64 64 65 65 65 65 66 65 64 64 63 62 61 60 59 59 59 58 56 55 55 53 53 52 52
24 25 27 29 30 31 33 34 35 36 38 39 40 41 42 42 43 44 45 45 46 47 48 49 50 51 52 53 54 55 57 58 58 58 59 59 58 58 59 59 59 60 61 61 62 63 63 65 65 65 65 64 64 65 65 66 67 68 67 67 66 65 64 64 63 63 63 63 63 63 62 61 61 60 60 58 55 55 55 54 54 54 53 53 52 52 52
25 26 27 28 30 31 32 33 35 36 37 38 39 40 40 41 42 43 43 44 46 47 48 49 50 52 53 53 54 54 54 53 53 53 53 52 52 52 51 51 51 51 51 53 54 56 57 59 61 62 63 63 64 64 65 66 67 67 68 68 67 66 66 65 65 65 64 63 63 62 60 60 59 59 58 56 54 52 51 51 51 51 51 51 51 51 51
25 26 27 28 29 31 32 33 34 35 36 37 37 38 39 40 41 42 43 44 45 45 46 46 47 47 47 47 46 45 44 43 43 43 42 42 42 41 40 40 39 39 39 40 41 43 45 47 49 51 53 54 56 58 60 61 63 64 65 66 66 66 66 66 66 66 66 65 64 63 61 60 59 57 56 56 54 52 50 50 49 49 49 49 49 49 48
24 25 26 27 29 30 31 32 33 34 34 35 36 36 37 38 39 40 40 41 40 40 39 37 36 36 36 35 34 34 34 33 33 33 32 31 31 31 31 31 31 30 30 31 31 32 33 35 37 40 42 44 46 49 51 53 55 57 59 61 62 63 64 64 64 65 65 66 65 64 63 62 60 58 57 56 55 53 50 49 48 48 48 48 47 46 45
24 25 26 27 28 29 30 30 31 32 33 33 34 34 35 36 36 35 34 32 30 28 27 26 25 25 26 26 26 27 27 27 27 26 25 25 25 25 25 25 25 25 25 26 26 27 28 29 30 31 33 35 37 40 42 45 48 50 52 53 55 57 58 59 60 61 62 63 64 64 63 62 60 59 57 56 55 53 51 50 49 48 47 46 45 44 43
23 24 25 26 27 27 28 28 29 30 31 31 31 31 31 30 29 26 23 21 19 18 18 18 18 19 19 19 19 19 19 19 19 19 19 19 19 19 20 20 21 22 22 22 23 23 24 25 25 26 28 30 32 33 34 36 38 40 42 44 47 49 50 52 53 55 56 58 60 60 61 60 59 58 57 56 55 53 52 50 48 47 46 45 43 42 41
22 23 24 24 25 25 26 26 27 28 28 28 27 25 23 21 19 16 13 13 13 15 15 14 13 11 10 10 9 9 9 9 10 10 11 12 13 13 14 14 14 14 13 13 13 14 16 18 19 20 21 24 26 28 30 31 32 33 34 36 37 40 41 44 46 48 49 51 53 54 55 56 55 55 55 55 54 52 51 49 47 46 45 43 42 40 39
21 22 22 22 23 24 24 24 24 24 23 22 20 18 16 13 11 10 10 11 12 11 9 7 6 4 4 5 5 6 6 7 7 8 8 8 8 9 9 8 7 7 7 7 7 8 10 11 13 14 14 14 15 17 20 22 25 28 29 30 32 33 35 38 40 42 43 44 45 46 48 49 50 51 51 51 50 49 47 46 45 44 42 41 39 38 37
20 20 20 21 22 22 23 22 21 20 18 16 14 11 10 9 8 8 9 10 8 6 3 2 2 4 6 6 7 8 9 9 9 9 8 7 7 7 6 5 5 6 6 7 8 9 9 10 10 11 11 10 9 9 9 10 13 17 20 22 25 27 30 32 34 36 36 37 37 38 40 42 43 44 45 44 44 43 42 41 41 40 39 37 36 36 35
19 19 19 20 21 21 21 19 17 15 13 11 9 8 8 8 8 8 8 7 5 4 3 2 4 6 6 7 9 10 10 10 10 9 8 8 7 5 4 5 6 7 8 9 10 10 10 9 9 9 8 8 7 6 6 8 10 11 13 15 17 19 22 25 27 29 29 29 29 31 32 34 37 38 38 37 36 35 35 34 34 34 33 33 32 32 31
19 19 19 19 19 19 18 15 13 11 10 9 8 7 7 7 7 6 5 4 4 5 4 3 4 5 6 6 8 8 9 9 10 9 8 7 6 4 4 6 7 8 10 12 12 11 10 10 11 10 10 9 6 4 5 7 9 10 12 14 13 13 15 17 19 21 23 23 24 25 27 28 29 29 27 27 28 29 29 29 28 28 28 28 28 27 26
18 18 18 18 18 17 15 12 10 9 8 7 6 6 6 6 6 4 3 4 5 6 5 4 3 3 3 4 4 5 6 8 9 8 7 6 5 5 6 8 8 9 12 13 12 11 11 11 12 12 11 11 10 11 12 12 11 7 6 10 10 9 9 11 13 15 17 19 20 21 23 24 24 22 18 15 17 20 23 24 24 24 25 25 24 22 20
18 17 17 17 17 15 12 9 8 7 6 6 6 5 4 4 3 3 3 4 5 6 5 4 5 4 2 0 2 3 4 6 9 9 7 5 5 6 7 8 9 11 12 13 12 12 12 11 11 11 11 11 11 12 15 17 20 19 13 3 4 6 7 8 10 12 14 15 16 19 21 25 26 25 20 16 15 17 21 23 23 22 22 20 18 18 18
17 17 17 16 15 13 10 8 7 6 6 6 5 4 2 3 2 2 3 5 6 6 4 3 5 6 4 2 1 3 5 7 8 9 8 8 9 9 9 9 10 11 12 12 12 13 14 14 15 15 13 11 9 10 12 15 20 24 24 19 11 6 5 6 7 9 10 12 15 19 22 25 25 23 22 21 20 20 22 23 22 21 19 17 16 17 18
16 16 16 15 13 11 9 7 6 6 6 6 6 4 2 4 5 3 3 5 6 6 6 5 6 7 5 3 2 3 5 7 9 9 11 13 13 14 14 13 13 13 12 10 10 12 14 16 18 18 16 12 9 9 10 13 16 20 23 24 22 18 15 13 11 12 12 14 16 19 20 21 22 22 22 22 20 19 19 19 18 17 16 15 16 17 17
15 15 14 13 11 10 9 7 6 6 6 6 6 6 4 4 5 3 4 6 7 6 7 7 7 7 7 5 3 3 4 6 7 9 11 13 15 16 17 17 18 16 13 10 9 11 14 16 18 18 17 15 12 10 11 12 13 14 16 19 21 22 22 21 20 20 20 20 21 22 22 22 22 21 19 18 16 16 15 15 15 16 16 16 17 16 16
15 14 13 12 10 9 8 7 6 6 6 6 7 7 5 4 4 3 4 6 6 6 7 8 7 7 7 6 4 4 4 5 7 7 8 10 12 15 16 17 18 17 15 12 11 12 13 14 15 15 15 16 16 14 13 12 12 12 12 13 14 16 16 17 17 17 17 18 18 18 17 16 15 13 13 12 13 14 15 16 17 17 17 17 17 15 15
14 13 13 11 10 9 8 6 6 6 6 6 6 6 6 5 4 3 2 5 6 6 7 8 9 8 8 7 6 5 5 6 7 7 6 6 7 9 13 15 16 16 16 15 14 14 14 15 14 13 13 13 14 15 14 14 13 13 13 13 13 12 12 11 11 10 10 10 10 9 9 9 10 10 11 12 13 14 15 16 17 17 17 17 17 16 16
14 13 12 11 10 10 8 7 6 6 5 5 5 5 5 6 5 3 1 2 4 4 4 6 8 9 9 8 7 6 6 6 7 7 5 3 2 3 6 10 13 13 13 14 14 15 16 17 16 15 14 13 13 13 14 14 13 12 12 13 13 13 12 12 11 10 9 9 8 8 8 9 10 12 13 14 15 16 16 16 16 16 16 17 18 18 19
14 13 12 12 11 11 10 8 7 6 6 5 4 4 4 5 5 3 1 1 1 1 2 3 4 5 6 6 6 6 7 7 7 8 7 5 2 2 3 6 8 10 10 11 12 13 15 17 17 17 16 15 14 14 14 14 13 12 11 11 10 10 11 11 11 10 10 10 9 9 9 10 11 12 13 14 14 14 14 15 15 15 16 17 18 19 20
14 12 12 12 12 12 12 11 10 8 8 7 6 5 4 5 5 4 2 0 0 1 2 3 4 4 5 5 5 6 7 8 8 8 7 6 5 4 4 4 5 6 7 8 9 10 11 14 15 16 16 16 16 16 16 15 14 14 13 11 10 9 9 9 9 8 8 9 9 9 9 10 11 11 12 12 12 12 12 13 14 15 16 17 18 20 21
15 13 12 13 13 14 14 14 13 11 10 9 8 8 6 6 6 6 5 3 2 3 4 4 4 4 5 5 5 5 5 6 6 5 5 4 4 4 4 4 5 5 5 5 6 7 8 10 11 13 13 14 15 16 16 16 15 15 14 13 12 11 10 9 8 8 7 7 8 8 9 9 10 11 11 11 12 12 12 13 14 14 16 17 18 20 21
16 14 13 13 14 15 16 16 15 14 12 11 11 10 9 8 8 8 7 6 5 5 6 6 5 5 6 6 6 6 5 4 3 3 3 2 1 1 2 2 3 4 4 4 4 5 5 6 8 9 10 11 12 13 14 14 15 15 14 14 13 13 12 11 10 9 8 7 7 7 8 8 9 10 11 11 12 12 12 13 14 15 16 17 18 19 19
16 16 14 13 14 16 17 17 17 16 15 14 13 13 12 11 10 10 10 9 8 8 8 8 7 7 6 7 7 6 6 5 4 3 3 2 1 2 2 2 1 2 2 3 4 4 4 4 5 6 6 7 8 9 10 10 11 12 13 13 13 12 12 11 11 10 10 9 8 7 6 6 6 7 9 10 12 13 14 15 17 18 18 18 17 17 16
17 17 16 14 15 16 18 18 18 18 18 17 16 15 15 14 13 13 13 12 11 11 11 10 10 9 8 8 7 7 6 6 5 5 4 3 2 2 3 2 2 2 2 2 3 3 3 3 4 4 4 5 5 6 7 7 8 8 9 9 10 10 10 10 10 10 9 9 8 7 6 5 4 3 5 7 10 13 16 17 18 18 18 17 16 16 16
17 17 17 16 16 16 18 20 20 20 21 20 19 18 17 17 16 15 15 15 14 13 13 12 12 11 10 9 9 8 7 7 6 5 4 3 3 2 1 0 1 1 2 2 2 3 3 3 3 3 3 4 4 4 5 5 6 6 6 7 6 6 7 7 7 7 7 7 7 6 5 4 3 1 2 5 8 11 13 15 16 16 17 17 17 17 18
17 17 17 17 17 17 19 21 22 23 23 23 21 20 20 19 19 18 18 17 17 16 15 14 13 13 12 11 10 9 9 8 7 6 5 5 4 4 3 3 3 2 2 2 1 1 2 2 2 2 3 3 3 4 4 4 5 5 5 5 5 5 5 5 5 5 5 4 4 4 3 3 2 2 2 3 5 8 10 12 14 16 17 18 19 19 20
17 17 17 17 17 18 19 21 23 24 25 24 24 23 22 21 21 21 20 19 19 18 17 16 15 14 14 13 13 12 11 10 9 8 7 7 6 6 5 5 5 5 5 5 5 4 4 4 4 4 4 4 4 4 4 5 5 6 6 6 6 6 6 6 6 6 6 6 6 6 6 6 6 6 6 6 7 8 10 11 13 14 16 17 18 19 20
17 17 17 18 18 18 19 21 23 25 25 25 26 25 24 23 22 22 22 21 21 20 19 18 18 17 16 15 15 14 13 13 12 11 10 9 9 8 8 7 7 7 7 7 7 8 8 8 8 8 8 8 8 7 7 7 7 8 8 9 9 9 10 10 10 10 10 10 10 10 10 11 11 11 11 11 11 12 13 14 15 16 16 17 18 19 20
18 18 18 18 18 18 19 20 22 25 26 26 27 26 26 25 25 24 23 23 23 23 22 21 21 20 20 19 18 17 16 15 15 15 14 13 12 11 11 10 9 9 8 8 8 9 10 10 11 12 12 12 13 12 12 12 12 12 12 12 13 13 14 14 14 14 15 15 15 15 15 15 16 16 16 16 17 17 17 18 19 19 20 20 21 22 23
Wind_Direction
232 229 228 230 235 237 234 229 227 227 232 239 244 247 249 252 255 258 259 259 257 257 258 260 262 264 264 264 264 263 262 262 263 265 266 268 270 272 273 273 274 273 273 274 274 275 275 275 276 276 273 266 262 269 279 282 280 279 279 280 281 282 283 282 282 283 286 287 284 282 284 278 265 263 263 256 252 253 252 248 245 248 253 251 247 249 258
240 235 231 231 233 236 236 235 235 236 238 242 244 246 249 252 256 258 260 261 260 260 260 260 262 264 265 266 265 265 264 264 265 266 267 269 271 272 273 273 274 274 273 274 274 274 274 273 274 272 268 266 267 271 276 278 278 278 276 277 278 278 279 279 280 282 283 283 283 281 278 275 266 265 268 263 258 254 247 242 248 260 268 271 267 265 270
247 244 240 237 237 239 240 237 235 235 237 240 243 247 250 252 254 256 257 258 259 259 260 260 262 263 265 267 267 267 268 268 269 269 269 270 271 272 272 273 273 273 273 273 273 274 273 272 271 269 267 267 269 271 273 275 277 277 276 276 277 276 276 276 276 278 280 282 283 282 278 273 268 268 269 267 263 261 258 261 269 274 274 273 269 268 271
256 255 252 249 248 252 253 247 240 236 236 240 244 248 250 251 252 252 253 254 255 256 258 259 261 262 264 266 267 268 270 271 271 271 271 271 271 271 271 272 272 273 273 273 273 273 273 272 270 269 268 268 270 270 271 273 274 275 276 276 277 276 275 275 275 276 278 279 281 281 278 275 274 274 274 271 267 267 268 271 272 270 269 270 269 268 270
257 257 256 256 256 258 260 259 255 250 248 249 250 251 251 251 251 251 250 251 252 254 256 258 260 262 263 264 265 266 267 269 270 271 271 271 271 271 271 271 271 272 272 273 273 274 273 271 269 268 268 267 268 268 269 271 272 273 274 275 275 275 275 275 275 275 276 277 278 278 277 275 276 277 276 274 272 270 269 268 266 262 264 268 270 271 272
256 255 255 256 256 257 259 260 260 258 257 256 254 253 252 253 253 252 250 250 251 252 254 256 258 260 262 263 264 265 265 266 268 269 270 271 272 272 272 272 272 272 273 273 275 275 274 272 271 270 269 268 266 266 267 268 269 271 272 273 272 273 273 273 273 273 274 275 276 277 277 276 276 276 276 275 274 272 269 268 266 266 266 267 268 271 272
255 254 254 255 255 257 258 260 260 259 258 257 255 253 252 253 253 253 253 253 253 253 254 256 257 259 261 262 264 265 266 267 268 269 270 271 272 272 272 272 272 272 272 271 270 269 270 272 272 272 270 268 267 267 266 266 267 268 268 269 269 270 269 268 268 270 272 272 273 274 275 275 276 275 275 275 275 274 271 269 268 268 268 269 270 272 274
254 254 254 255 256 256 257 258 258 259 258 258 256 255 254 253 254 254 255 256 256 256 257 258 259 260 262 263 264 265 266 267 267 268 269 269 270 270 270 271 272 272 272 271 269 267 267 268 269 269 269 268 269 269 267 266 265 265 265 266 267 268 267 266 267 268 269 269 269 270 271 272 273 274 274 274 274 273 272 272 271 270 270 272 274 277 279
257 257 257 258 258 257 257 258 259 260 261 261 261 260 259 258 258 259 259 260 260 260 261 261 261 262 262 263 263 264 264 265 265 266 266 266 266 266 267 269 270 271 272 272 271 271 269 267 265 265 265 264 266 268 267 266 265 264 265 266 266 266 266 266 267 267 267 266 267 267 268 269 271 272 272 272 272 272 272 273 273 271 270 274 276 278 280
260 261 262 262 263 263 263 263 263 263 263 263 263 263 262 262 262 263 263 263 264 263 263 263 262 262 262 262 262 262 262 262 262 262 262 262 262 263 264 266 268 269 270 270 270 269 268 266 264 262 261 258 258 260 262 262 263 264 264 264 264 265 266 266 266 265 265 265 266 266 267 269 269 270 271 270 270 269 269 271 271 269 270 274 277 278 280
260 261 262 264 265 266 267 266 266 267 267 267 267 266 266 267 266 266 265 265 265 265 265 264 264 263 262 262 262 262 261 261 261 260 260 260 261 261 262 263 264 265 266 267 267 265 264 264 263 262 261 259 257 258 259 260 260 260 262 263 264 265 266 265 264 262 261 263 265 265 266 267 267 267 268 268 268 268 267 267 267 267 270 274 277 279 280
260 261 261 262 264 265 266 267 268 269 269 269 269 269 269 270 269 268 267 266 266 267 266 266 265 265 265 265 264 264 264 263 263 262 262 262 261 261 261 261 262 262 263 263 264 264 263 263 262 261 260 259 258 258 259 260 258 256 255 256 258 258 258 257 258 258 259 261 263 265 266 266 266 265 265 265 265 265 265 265 265 265 268 273 277 280 281
260 260 261 262 263 265 266 267 268 269 270 270 270 271 270 269 267 266 266 266 266 266 265 264 263 264 265 266 266 266 266 266 266 265 265 265 264 263 262 262 261 261 261 261 261 261 262 261 261 260 259 258 257 256 257 258 258 256 254 252 253 253 254 253 253 254 256 260 262 263 262 262 263 264 264 263 263 264 265 265 266 266 268 272 277 280 280
258 260 261 263 264 265 266 266 267 267 267 267 268 269 268 267 266 266 266 266 265 264 263 262 261 261 262 262 263 264 264 265 265 265 265 265 265 265 264 263 262 260 259 259 259 259 260 260 260 259 258 258 257 256 256 255 256 256 255 255 255 256 257 258 257 255 256 256 255 254 255 257 260 261 261 262 263 265 266 267 268 269 270 274 277 279 278
255 257 259 261 263 265 265 266 267 265 264 265 266 266 267 268 268 267 266 265 264 263 262 262 261 261 261 260 260 260 261 261 262 262 263 264 264 265 265 265 264 262 260 259 258 258 258 259 259 259 258 258 257 257 257 256 255 255 255 256 256 256 257 258 259 259 258 257 255 254 255 257 259 259 259 261 263 265 267 268 270 271 273 275 277 277 277
257 259 261 262 264 266 267 268 268 267 267 268 268 267 268 270 270 270 269 268 266 265 264 264 264 264 263 262 262 261 261 261 261 260 261 262 262 263 264 264 265 265 264 263 261 260 259 258 258 258 258 258 257 257 257 257 256 256 256 256 257 257 257 257 257 258 259 259 259 259 259 259 259 258 258 260 262 265 267 269 270 272 273 274 275 275 275
251 255 259 261 262 264 265 267 268 267 267 266 264 263 264 265 267 270 270 270 270 269 268 267 267 267 267 267 267 266 265 265 265 264 263 262 262 262 262 263 263 264 265 265 265 264 264 262 261 260 259 258 258 258 258 258 257 257 256 256 256 256 257 257 257 257 258 259 259 260 261 261 261 260 259 260 262 263 265 267 268 269 271 272 272 272 272
242 243 246 249 251 253 254 255 255 255 256 256 257 257 259 261 264 267 270 272 273 273 272 271 271 271 271 271 270 270 269 269 268 268 267 266 265 264 263 262 262 263 263 264 264 265 265 265 265 264 263 262 260 260 259 259 259 258 257 257 256 255 255 255 256 257 258 259 259 260 261 262 262 262 261 261 261 261 262 263 265 266 267 268 269 269 269
244 243 242 244 245 247 249 249 250 250 251 252 254 256 258 261 264 268 272 275 276 275 274 274 273 273 272 272 271 271 271 270 270 269 269 268 267 267 266 265 264 263 263 263 263 263 263 264 265 265 265 264 264 263 261 261 260 259 259 258 257 257 256 255 255 255 256 257 259 259 260 261 262 262 262 262 262 262 262 263 263 264 264 264 265 266 267
249 248 247 247 246 247 249 251 254 256 257 259 260 262 264 266 268 271 273 275 275 275 275 274 274 273 273 273 273 272 272 272 271 271 270 270 269 269 269 268 267 266 265 264 263 262 262 262 262 262 263 263 263 263 262 262 261 260 259 259 258 258 258 257 257 256 256 257 257 258 259 259 260 260 261 262 262 263 263 263 264 264 264 263 263 264 265
256 256 255 255 255 254 255 256 257 259 261 263 264 265 267 269 270 271 273 274 275 275 276 276 276 276 276 276 276 275 275 275 274 274 273 273 272 272 271 270 270 268 267 266 264 263 262 261 260 260 260 260 260 261 261 261 261 260 260 259 259 258 257 258 258 258 258 258 258 258 258 258 258 258 258 260 261 262 263 264 264 264 264 264 264 264 265
261 261 262 262 262 262 262 261 262 263 264 265 267 268 269 270 272 273 274 275 276 277 277 278 279 279 280 280 280 280 279 279 278 278 277 277 276 275 274 273 272 271 270 268 266 264 263 261 260 259 258 258 257 258 258 258 259 259 259 258 258 258 258 257 258 258 258 259 258 258 258 258 259 258 257 257 258 260 262 263 264 264 265 265 265 265 265
263 263 264 264 265 265 266 267 267 268 268 269 270 270 272 273 274 276 277 278 279 280 281 281 282 282 283 283 283 283 283 282 282 282 282 281 280 279 277 276 274 273 272 270 268 267 265 263 262 260 259 257 256 256 256 256 256 256 257 257 257 257 257 257 257 257 257 257 258 258 258 258 258 259 259 258 257 258 259 261 262 263 263 264 264 264 264
263 264 265 266 267 268 269 270 271 271 272 273 274 275 276 277 278 279 280 281 281 282 283 283 283 283 283 283 284 284 284 285 285 285 284 283 282 281 280 279 278 276 275 273 272 270 268 266 265 263 261 259 258 256 255 255 254 254 255 255 255 255 255 256 256 256 256 256 257 257 257 257 258 258 259 259 258 257 257 258 259 259 260 260 261 262 262
269 270 270 270 270 271 271 271 272 273 274 275 276 277 278 279 280 280 280 281 281 281 282 283 283 283 283 284 285 286 286 286 286 285 284 283 283 283 283 283 282 281 279 278 276 274 272 270 268 266 264 262 260 259 257 256 255 254 254 254 254 254 254 254 254 255 255 255 256 256 256 256 257 257 258 258 258 257 256 255 255 256 257 258 259 260 261
275 275 274 274 274 275 275 276 276 276 277 277 278 278 278 278 279 279 279 280 281 281 282 282 283 284 286 287 288 288 288 287 286 286 287 286 286 287 287 288 287 286 285 283 280 278 274 272 270 267 265 262 260 258 257 256 255 254 254 254 254 253 253 253 253 253 254 254 254 254 254 254 254 255 255 256 257 257 256 255 255 255 255 256 258 259 260
276 276 277 278 278 278 279 279 278 278 279 279 279 278 278 278 278 279 280 281 282 282 282 283 285 287 290 290 290 290 289 289 289 289 289 289 289 289 290 291 291 291 289 288 285 283 280 278 275 273 270 266 263 260 258 257 255 254 253 253 252 252 252 252 251 251 252 252 253 253 253 253 253 253 253 254 254 255 255 255 254 255 255 256 256 258 258
276 277 279 280 281 281 281 281 281 281 281 281 281 281 281 282 283 284 284 284 284 285 286 288 291 293 294 294 295 297 297 297 295 295 294 294 294 294 295 296 297 298 298 296 293 290 287 283 279 276 272 268 266 265 264 262 261 259 258 256 254 253 252 251 250 250 249 250 250 251 252 252 252 252 252 252 252 252 253 253 253 253 253 254 255 255 256
279 281 283 284 285 285 284 284 284 284 283 283 284 285 285 286 286 285 284 283 287 291 294 296 300 302 305 309 314 319 322 320 316 313 312 311 309 310 312 314 314 316 319 320 315 308 301 295 290 284 278 272 268 265 264 264 263 263 262 260 257 254 252 251 250 250 250 249 249 249 249 249 249 249 250 250 250 250 251 251 250 250 251 252 253 253 254
283 284 286 287 288 288 289 289 288 287 286 286 287 287 286 282 278 278 282 289 294 296 297 301 313 337 7 19 23 25 23 19 14 7 360 355 356 360 3 7 11 16 15 10 1 345 328 317 310 304 297 289 280 271 266 263 262 261 260 259 257 254 251 249 248 248 249 250 250 249 248 247 246 246 246 247 247 248 248 248 248 248 249 250 251 252 252
286 288 290 292 294 295 295 294 292 290 289 289 287 286 281 273 270 279 290 299 299 286 267 296 13 44 55 55 53 48 42 40 40 38 41 50 57 56 54 47 31 12 355 345 341 336 333 331 326 318 309 301 294 286 278 271 265 262 259 256 253 251 250 248 247 247 248 248 249 248 247 244 242 241 242 243 244 244 244 245 245 246 246 247 248 248 249
293 295 297 299 300 299 298 296 293 291 289 286 286 284 275 269 277 289 296 301 289 242 201 106 65 70 72 63 56 51 47 44 43 44 53 67 77 85 77 47 22 3 354 353 351 348 349 350 346 339 333 322 308 296 295 293 284 277 271 262 251 245 244 244 243 243 243 243 244 244 242 239 237 237 237 238 239 239 239 239 240 241 241 241 241 243 245
298 300 303 305 304 301 298 295 290 284 279 277 280 279 274 279 293 296 293 294 271 225 189 127 90 87 77 57 47 44 39 34 36 46 60 66 61 49 38 32 21 7 3 6 9 13 14 5 354 354 2 6 5 8 355 330 309 289 276 265 250 239 237 236 233 233 234 234 233 233 231 229 228 226 226 229 231 231 231 231 231 230 230 231 232 234 236
299 303 306 307 304 300 297 291 281 273 269 271 276 279 286 301 305 293 290 293 263 228 203 180 157 125 82 54 49 48 32 20 27 45 65 66 51 40 36 32 25 18 16 16 15 15 11 359 351 358 19 41 53 51 40 27 18 358 295 256 236 223 220 219 215 214 217 219 220 219 215 209 202 195 196 210 222 222 219 217 215 214 216 220 222 222 222
300 304 308 307 303 299 294 285 272 264 264 267 270 277 297 314 298 267 292 303 271 240 225 205 187 177 166 53 50 46 16 7 21 40 58 64 57 52 43 34 28 27 25 24 23 20 18 15 11 16 32 53 61 54 48 47 49 50 51 67 190 197 197 195 193 194 198 201 200 196 189 182 176 172 177 194 213 213 204 198 195 197 200 202 204 207 211
301 305 308 307 302 296 290 279 267 261 260 261 260 266 314 358 350 272 286 302 282 253 232 194 173 175 189 224 313 353 356 0 14 33 54 64 61 53 44 35 30 28 27 28 32 36 38 40 40 38 39 46 54 53 48 50 55 58 62 67 77 100 133 151 161 166 169 171 170 168 167 166 165 165 173 188 198 196 187 181 180 183 186 188 195 203 207
301 305 307 305 300 293 287 278 266 259 254 251 249 251 304 357 352 306 272 289 282 250 213 177 165 173 187 211 287 336 353 0 9 29 52 62 61 56 51 43 35 28 22 22 35 49 53 52 51 47 42 42 53 66 67 62 60 62 66 70 73 78 84 92 105 118 128 136 143 147 150 153 153 155 161 169 174 173 171 171 176 182 189 196 201 202 203
300 303 304 302 295 288 283 276 267 260 254 247 246 250 270 321 334 305 261 267 269 240 198 176 173 184 193 208 247 293 331 354 10 33 53 61 62 60 57 50 43 35 27 24 36 51 58 60 58 54 48 46 54 72 84 81 71 66 68 72 77 80 82 83 88 95 103 112 121 127 131 134 138 143 150 158 165 172 179 188 194 198 201 201 198 197 199
298 301 302 298 289 280 277 273 266 259 252 244 245 252 262 288 316 306 247 239 238 214 189 183 187 193 200 213 241 273 309 345 6 26 48 59 62 61 58 52 45 39 35 36 44 51 56 59 62 61 57 56 58 66 77 83 82 79 79 80 81 82 83 84 87 92 98 104 111 118 124 130 137 146 158 169 178 185 192 196 198 199 199 198 197 199 199
294 298 297 292 283 273 269 268 262 255 247 242 246 253 260 273 295 309 249 213 204 190 187 195 200 206 215 227 243 265 292 324 345 1 23 47 57 59 57 53 46 39 35 39 49 57 58 58 58 60 63 64 66 68 72 77 82 88 93 97 98 95 92 91 93 100 107 113 118 124 131 142 153 163 171 177 180 183 186 190 193 196 198 199 198 198 197
289 293 292 286 276 265 258 255 252 246 240 236 242 253 260 265 277 301 317 193 183 175 180 194 200 209 223 236 250 270 291 310 325 334 347 8 34 47 47 44 40 34 31 34 43 54 59 60 57 57 59 64 70 73 75 77 81 85 90 96 103 107 107 108 110 113 119 127 133 138 141 149 158 166 171 176 180 183 186 190 192 194 195 195 195 196 198
283 287 287 280 269 258 250 245 241 237 233 229 231 245 258 262 262 272 321 8 174 182 206 217 210 211 223 237 250 269 283 289 293 300 307 313 315 330 4 19 23 24 24 28 35 46 56 61 60 59 59 61 64 68 71 72 74 78 81 86 94 102 108 114 118 123 128 134 141 146 150 154 160 167 172 178 182 185 187 190 191 192 193 195 197 200 201
279 280 280 274 264 253 244 238 234 230 227 223 219 223 238 251 253 246 240 244 219 224 239 249 246 239 238 240 244 257 270 276 280 287 293 295 294 300 315 333 352 3 11 20 28 37 48 57 60 61 61 61 63 66 68 69 69 71 75 78 85 94 104 113 120 126 132 139 147 155 162 166 171 175 179 185 190 192 191 192 193 195 197 199 200 200 198
276 276 273 268 261 252 243 237 233 229 226 222 218 215 219 231 241 238 223 205 201 208 210 217 228 231 229 230 233 239 249 261 270 279 288 293 296 301 309 320 332 341 352 4 15 26 38 49 55 57 56 57 58 61 64 65 66 67 69 72 76 81 89 99 110 121 132 142 152 160 166 171 174 174 176 182 187 188 187 188 191 194 197 198 196 192 187
273 272 270 265 258 252 246 240 234 230 228 225 221 217 214 216 226 232 223 207 199 201 195 187 190 201 206 206 207 206 205 214 236 254 264 275 296 323 338 342 343 344 345 348 353 1 16 34 43 46 47 48 49 51 51 51 53 56 59 61 64 67 72 78 85 95 107 119 131 143 153 158 161 162 163 168 172 173 174 178 182 185 187 188 185 181 179
270 269 267 261 255 252 249 244 237 232 230 228 225 222 218 215 219 229 229 218 207 205 200 188 179 183 190 189 184 178 173 171 180 199 215 213 128 78 72 66 39 13 5 2 355 351 356 11 24 30 32 33 36 38 38 38 40 43 46 47 49 52 56 60 65 70 77 84 91 101 113 127 140 151 158 163 166 167 168 171 174 175 176 178 178 179 182
270 268 266 260 255 250 248 245 240 235 231 229 227 226 224 219 218 225 231 226 215 209 207 200 189 183 182 180 175 171 169 168 168 174 184 180 143 99 81 80 80 70 55 40 27 17 12 12 14 16 17 17 18 20 21 23 26 29 32 34 37 40 42 44 48 51 55 58 62 67 73 81 100 136 163 174 176 174 173 174 175 177 179 182 186 191 196
268 267 265 262 256 250 247 245 241 237 233 231 229 228 227 224 221 222 228 230 224 216 212 210 205 198 193 190 188 188 190 190 186 183 183 186 186 186 192 135 83 72 61 53 47 42 40 35 24 16 13 10 6 4 3 3 3 5 6 9 13 17 19 22 26 30 33 38 42 45 48 51 55 88 188 197 196 193 189 188 189 190 192 196 199 204 209
265 265 264 262 257 251 246 243 240 238 236 234 231 229 228 227 224 222 224 228 228 225 221 221 220 216 211 208 207 207 208 210 207 205 207 214 222 231 244 258 268 282 292 300 315 338 1 11 8 2 358 354 352 351 348 344 340 337 335 335 336 336 336 336 339 342 345 348 351 354 356 355 350 331 280 241 229 223 219 216 214 213 214 215 216 218 221
263 263 263 261 258 253 247 243 240 239 238 236 234 232 231 229 228 226 225 226 227 228 228 229 230 229 227 225 223 223 225 228 229 227 229 234 240 247 256 266 276 284 290 293 295 298 301 305 310 312 310 310 311 313 315 317 316 314 311 308 305 301 298 295 294 294 294 295 294 293 291 288 286 283 276 268 261 255 249 245 242 239 237 236 236 236 236
264 262 261 260 257 253 248 243 241 241 240 239 237 236 234 232 230 230 229 228 227 227 228 230 234 237 237 236 235 235 236 238 239 240 242 246 251 257 264 271 279 287 294 299 303 306 306 306 306 306 304 302 298 295 293 291 291 292 293 292 291 289 287 284 281 278 276 273 272 272 273 273 272 270 268 266 263 262 260 259 257 255 254 253 252 251 251
264 263 261 260 257 254 250 245 243 242 241 239 238 238 236 235 234 233 232 232 230 229 228 229 232 236 239 240 242 243 244 244 245 246 247 248 251 256 262 268 274 281 288 294 300 305 309 311 312 312 312 310 308 305 301 296 291 288 285 284 282 281 280 279 278 277 276 274 271 269 267 266 264 264 263 262 261 260 259 259 259 259 259 258 258 258 258
Height
5665 5666 5667 5668 5669 5670 5671 5672 5673 5675 5677 5678 5679 5680 5681 5681 5682 5682 5683 5686 5688 5688 5689 5690 5691 5692 5693 5694 5695 5695 5696 5696 5697 5697 5697 5697 5697 5697 5698 5698 5699 5699 5699 5699 5699 5699 5700 5700 5700 5701 5701 5701 5702 5702 5702 5703 5703 5702 5703 5703 5704 5705 5704 5703 5704 5704 5705 5705 5706 5706 5706 5707 5708 5708 5708 5709 5710 5711 5711 5712 5712 5713 5713 5713 5714 5714 5714
5662 5662 5663 5664 5665 5666 5667 5668 5669 5671 5673 5675 5676 5676 5677 5677 5677 5678 5679 5681 5682 5684 5685 5686 5687 5688 5688 5689 5690 5690 5691 5692 5692 5693 5693 5693 5692 5692 5692 5693 5693 5693 5693 5693 5693 5693 5694 5694 5695 5695 5696 5696 5697 5697 5697 5697 5697 5698 5698 5699 5700 5701 5700 5700 5700 5700 5700 5700 5701 5702 5702 5704 5705 5705 5705 5707 5707 5707 5708 5708 5709 5709 5710 5710 5711 5711 5711
5658 5659 5660 5660 5661 5662 5662 5663 5665 5667 5669 5670 5671 5672 5672 5673 5673 5674 5675 5677 5678 5679 5680 5681 5682 5683 5683 5684 5684 5685 5685 5686 5686 5687 5687 5687 5687 5687 5687 5687 5687 5687 5688 5688 5688 5688 5688 5688 5689 5689 5690 5690 5691 5691 5691 5691 5692 5692 5693 5694 5695 5695 5695 5695 5695 5695 5695 5695 5696 5697 5698 5699 5700 5701 5702 5703 5704 5703 5703 5704 5705 5704 5703 5705 5707 5707 5706
5654 5655 5656 5656 5656 5657 5657 5659 5661 5663 5665 5666 5667 5667 5668 5668 5669 5670 5671 5672 5673 5675 5676 5676 5677 5678 5679 5679 5679 5679 5680 5680 5680 5681 5681 5680 5680 5681 5681 5681 5681 5681 5681 5682 5682 5682 5683 5683 5683 5683 5683 5684 5684 5685 5685 5685 5686 5686 5687 5688 5688 5689 5689 5689 5689 5689 5689 5690 5690 5692 5693 5694 5695 5696 5697 5698 5699 5699 5699 5701 5701 5699 5698 5699 5701 5701 5700
5650 5650 5651 5651 5652 5651 5652 5654 5656 5659 5660 5661 5662 5663 5663 5663 5664 5665 5666 5667 5669 5670 5671 5671 5672 5672 5673 5673 5674 5674 5675 5674 5674 5674 5674 5673 5673 5674 5674 5674 5674 5674 5674 5675 5676 5676 5677 5676 5676 5677 5677 5678 5678 5678 5679 5679 5679 5680 5680 5681 5681 5682 5682 5682 5682 5683 5683 5683 5684 5685 5686 5687 5689 5690 5691 5692 5693 5694 5695 5696 5695 5694 5694 5695 5695 5695 5694
5645 5646 5647 5647 5646 5646 5647 5649 5652 5654 5655 5656 5657 5658 5658 5658 5658 5660 5661 5662 5664 5665 5666 5666 5666 5667 5667 5667 5668 5668 5668 5668 5668 5667 5667 5667 5667 5667 5667 5667 5667 5667 5667 5668 5669 5670 5669 5669 5669 5670 5671 5671 5672 5672 5673 5673 5673 5673 5673 5674 5674 5675 5676 5676 5676 5676 5676 5677 5677 5678 5679 5680 5682 5683 5684 5685 5687 5688 5689 5689 5689 5688 5689 5689 5689 5690 5690
5640 5641 5642 5641 5641 5642 5644 5645 5647 5648 5650 5651 5652 5653 5653 5653 5653 5654 5655 5656 5657 5659 5659 5660 5661 5661 5661 5661 5661 5662 5662 5662 5661 5661 5660 5660 5660 5660 5660 5660 5660 5660 5661 5662 5663 5663 5662 5661 5662 5663 5664 5664 5665 5665 5666 5666 5666 5666 5666 5667 5667 5668 5669 5670 5670 5671 5671 5671 5671 5672 5672 5673 5674 5676 5677 5679 5680 5681 5681 5682 5682 5682 5682 5683 5683 5683 5683
5634 5635 5636 5635 5636 5638 5640 5640 5642 5643 5644 5646 5647 5647 5648 5648 5648 5649 5649 5650 5650 5652 5653 5654 5654 5655 5655 5655 5655 5655 5655 5654 5654 5654 5654 5654 5654 5653 5653 5653 5652 5653 5654 5654 5654 5654 5655 5655 5656 5657 5657 5658 5658 5659 5659 5659 5659 5660 5659 5660 5660 5661 5662 5663 5664 5665 5665 5666 5666 5666 5667 5667 5668 5669 5670 5671 5672 5673 5674 5675 5675 5675 5676 5676 5676 5676 5676
5628 5629 5629 5629 5630 5632 5634 5636 5637 5638 5638 5640 5641 5641 5641 5642 5643 5643 5643 5643 5643 5645 5646 5647 5647 5647 5647 5648 5648 5648 5648 5648 5648 5648 5648 5648 5648 5647 5646 5646 5645 5645 5646 5645 5645 5646 5647 5648 5650 5650 5650 5651 5652 5652 5652 5652 5653 5653 5654 5654 5654 5654 5654 5656 5657 5658 5658 5659 5660 5660 5660 5661 5662 5662 5663 5664 5665 5666 5667 5667 5668 5669 5669 5669 5669 5669 5669
5622 5623 5623 5623 5624 5626 5629 5630 5631 5631 5632 5633 5634 5634 5634 5636 5637 5637 5636 5636 5636 5637 5638 5639 5639 5639 5640 5640 5640 5640 5641 5641 5641 5641 5641 5641 5641 5640 5640 5639 5639 5638 5638 5637 5638 5640 5640 5640 5641 5642 5643 5644 5645 5645 5645 5646 5646 5647 5648 5648 5648 5648 5648 5648 5649 5650 5651 5652 5653 5653 5653 5654 5655 5655 5656 5657 5658 5659 5659 5660 5661 5662 5663 5663 5663 5663 5663
5617 5618 5617 5617 5618 5620 5622 5623 5624 5625 5625 5626 5627 5627 5627 5629 5630 5631 5631 5629 5629 5629 5630 5630 5631 5631 5631 5632 5632 5631 5632 5632 5632 5632 5632 5632 5632 5632 5632 5632 5631 5631 5630 5630 5630 5631 5632 5632 5633 5634 5635 5636 5637 5638 5638 5639 5640 5641 5641 5642 5642 5643 5643 5643 5643 5644 5644 5645 5646 5646 5647 5648 5648 5649 5650 5651 5652 5652 5653 5654 5655 5656 5656 5657 5657 5657 5657
5612 5612 5612 5612 5613 5614 5616 5616 5617 5618 5618 5618 5619 5619 5621 5623 5623 5624 5624 5623 5622 5622 5622 5622 5622 5621 5621 5623 5623 5622 5622 5622 5623 5623 5622 5622 5623 5623 5624 5624 5624 5624 5624 5623 5623 5623 5623 5624 5625 5626 5626 5627 5629 5630 5630 5632 5633 5633 5634 5635 5635 5636 5637 5637 5637 5637 5638 5639 5640 5640 5641 5641 5642 5643 5644 5645 5646 5646 5647 5648 5649 5650 5650 5651 5651 5651 5651
5606 5606 5606 5606 5607 5609 5610 5611 5611 5611 5611 5611 5611 5612 5614 5616 5616 5616 5616 5616 5616 5615 5615 5615 5615 5614 5614 5614 5614 5614 5613 5613 5613 5613 5613 5613 5613 5613 5614 5615 5616 5616 5616 5616 5616 5615 5615 5615 5616 5617 5618 5619 5620 5622 5622 5623 5625 5625 5626 5627 5627 5628 5629 5630 5631 5632 5632 5633 5634 5635 5635 5636 5636 5636 5637 5638 5639 5640 5641 5642 5643 5644 5644 5645 5645 5645 5645
5600 5600 5601 5601 5602 5603 5605 5604 5605 5606 5605 5604 5605 5606 5607 5608 5608 5609 5609 5609 5609 5608 5608 5608 5608 5607 5607 5607 5607 5606 5606 5606 5606 5605 5605 5604 5604 5604 5604 5605 5607 5608 5609 5609 5609 5608 5608 5607 5608 5609 5610 5610 5611 5613 5614 5615 5616 5617 5618 5618 5620 5621 5622 5622 5623 5625 5626 5627 5628 5629 5629 5630 5630 5631 5631 5631 5632 5633 5634 5635 5636 5637 5637 5638 5638 5638 5638
5595 5595 5595 5596 5596 5597 5598 5598 5600 5601 5600 5599 5600 5601 5600 5600 5601 5601 5601 5602 5601 5601 5601 5600 5600 5600 5600 5600 5600 5600 5600 5599 5599 5598 5597 5596 5596 5596 5596 5596 5596 5597 5599 5600 5600 5600 5600 5600 5600 5600 5601 5602 5603 5604 5605 5606 5607 5608 5609 5610 5611 5613 5614 5614 5615 5616 5617 5618 5620 5621 5622 5624 5625 5626 5626 5626 5626 5626 5627 5627 5628 5629 5630 5630 5630 5631 5630
5590 5590 5590 5591 5591 5592 5593 5593 5593 5594 5593 5593 5595 5595 5594 5594 5594 5594 5594 5594 5594 5594 5593 5593 5593 5592 5592 5592 5592 5592 5592 5592 5592 5591 5590 5589 5589 5588 5588 5588 5587 5587 5588 5589 5590 5591 5592 5592 5592 5592 5592 5593 5594 5594 5596 5597 5598 5599 5600 5601 5602 5604 5605 5606 5606 5607 5608 5609 5610 5612 5613 5615 5617 5619 5619 5620 5620 5619 5620 5621 5621 5622 5622 5622 5622 5623 5622
5585 5586 5586 5586 5587 5587 5588 5588 5588 5588 5588 5588 5589 5589 5589 5588 5588 5588 5588 5588 5587 5587 5587 5586 5585 5585 5584 5584 5584 5584 5584 5583 5583 5583 5582 5582 5581 5581 5581 5580 5579 5579 5579 5579 5580 5580 5581 5581 5582 5582 5582 5583 5584 5585 5586 5587 5588 5589 5591 5592 5593 5594 5595 5596 5597 5597 5599 5600 5601 5602 5602 5604 5606 5608 5610 5612 5612 5612 5613 5613 5614 5614 5614 5614 5615 5615 5614
5581 5582 5582 5582 5583 5583 5583 5583 5583 5583 5583 5583 5583 5583 5583 5582 5582 5582 5581 5581 5581 5581 5580 5579 5578 5577 5577 5576 5575 5575 5574 5574 5573 5573 5573 5572 5572 5572 5572 5572 5572 5571 5571 5571 5571 5571 5571 5571 5570 5570 5571 5572 5574 5576 5576 5576 5577 5578 5579 5581 5583 5584 5586 5587 5588 5588 5589 5590 5592 5593 5593 5595 5596 5598 5600 5602 5603 5604 5605 5606 5607 5607 5607 5607 5607 5607 5607
5574 5575 5576 5577 5577 5578 5578 5578 5578 5578 5577 5577 5577 5577 5576 5576 5576 5575 5575 5574 5574 5573 5573 5572 5571 5569 5568 5568 5567 5566 5566 5565 5564 5563 5563 5562 5562 5562 5562 5562 5562 5562 5562 5562 5562 5562 5563 5562 5560 5559 5560 5560 5562 5565 5565 5565 5565 5566 5568 5570 5572 5573 5575 5576 5578 5579 5580 5581 5582 5583 5585 5586 5587 5588 5590 5592 5593 5594 5596 5597 5599 5600 5601 5601 5601 5600 5600
5569 5570 5570 5571 5571 5572 5573 5573 5572 5572 5571 5571 5571 5570 5570 5570 5569 5568 5568 5567 5566 5566 5565 5564 5563 5562 5560 5560 5559 5558 5557 5556 5555 5554 5554 5554 5553 5552 5552 5551 5551 5551 5552 5552 5552 5552 5554 5553 5551 5550 5550 5551 5551 5552 5553 5554 5554 5555 5556 5559 5560 5562 5564 5565 5566 5568 5570 5571 5573 5575 5576 5577 5579 5580 5581 5582 5583 5585 5586 5587 5589 5591 5593 5594 5594 5594 5595
5565 5565 5565 5566 5567 5567 5568 5567 5567 5566 5565 5565 5564 5564 5564 5563 5563 5562 5561 5561 5559 5558 5557 5556 5555 5554 5552 5551 5551 5550 5549 5547 5546 5545 5545 5544 5543 5543 5541 5540 5540 5540 5540 5540 5541 5541 5542 5542 5541 5540 5541 5542 5542 5541 5542 5542 5542 5542 5545 5547 5549 5551 5553 5555 5556 5558 5559 5561 5563 5565 5566 5568 5570 5572 5573 5573 5574 5576 5577 5578 5580 5582 5584 5586 5587 5587 5588
5561 5561 5560 5561 5561 5562 5561 5561 5561 5561 5560 5559 5559 5558 5558 5557 5557 5556 5555 5554 5553 5552 5550 5549 5547 5546 5545 5543 5542 5541 5539 5537 5536 5536 5535 5534 5534 5532 5531 5530 5529 5528 5527 5527 5527 5529 5530 5529 5528 5529 5530 5531 5532 5532 5532 5531 5530 5531 5533 5535 5538 5540 5542 5544 5546 5548 5549 5551 5552 5554 5556 5558 5560 5562 5564 5566 5567 5568 5569 5571 5572 5574 5575 5577 5578 5579 5580
5558 5557 5557 5557 5557 5556 5556 5556 5556 5555 5554 5554 5554 5553 5552 5552 5551 5550 5548 5547 5546 5545 5543 5541 5540 5538 5537 5535 5533 5532 5530 5528 5527 5526 5525 5524 5523 5521 5519 5518 5517 5516 5515 5514 5514 5516 5516 5515 5516 5517 5519 5520 5521 5521 5521 5520 5520 5520 5522 5524 5527 5530 5532 5534 5536 5538 5539 5541 5542 5544 5546 5548 5550 5552 5554 5557 5560 5562 5563 5564 5565 5566 5568 5569 5570 5571 5572
5554 5554 5554 5553 5553 5553 5552 5552 5551 5550 5549 5549 5548 5548 5547 5546 5545 5544 5543 5541 5540 5538 5536 5535 5533 5531 5529 5528 5526 5524 5523 5520 5519 5517 5515 5514 5512 5510 5509 5508 5507 5506 5505 5504 5503 5504 5504 5503 5504 5505 5506 5508 5509 5509 5509 5509 5509 5510 5512 5514 5516 5519 5521 5523 5525 5527 5529 5531 5533 5535 5538 5540 5542 5544 5545 5548 5551 5554 5556 5557 5558 5559 5561 5562 5563 5564 5565
5551 5550 5550 5550 5549 5549 5548 5547 5547 5546 5545 5544 5543 5543 5542 5540 5539 5538 5537 5535 5534 5532 5531 5529 5527 5525 5523 5521 5520 5518 5516 5514 5512 5510 5508 5506 5505 5503 5502 5501 5499 5498 5497 5496 5495 5494 5493 5493 5493 5493 5495 5496 5497 5497 5497 5498 5499 5500 5502 5504 5506 5509 5511 5513 5515 5517 5519 5521 5524 5527 5529 5531 5534 5536 5538 5540 5542 5545 5548 5550 5551 5552 5554 5555 5556 5558 5559
5547 5546 5546 5546 5545 5544 5544 5543 5542 5541 5540 5540 5539 5538 5537 5536 5534 5533 5531 5530 5528 5527 5525 5524 5522 5520 5518 5517 5515 5513 5511 5509 5506 5505 5503 5502 5500 5499 5497 5496 5494 5493 5491 5490 5489 5487 5486 5485 5484 5484 5485 5485 5485 5485 5486 5487 5488 5490 5492 5494 5496 5499 5501 5503 5505 5507 5509 5511 5514 5517 5519 5522 5525 5528 5531 5532 5534 5537 5540 5542 5544 5545 5547 5549 5550 5552 5553
5543 5543 5542 5541 5541 5540 5539 5539 5538 5537 5536 5535 5534 5533 5531 5530 5529 5527 5526 5525 5523 5522 5521 5520 5518 5517 5515 5513 5511 5509 5507 5505 5503 5501 5500 5498 5497 5495 5494 5492 5490 5489 5487 5485 5484 5482 5481 5480 5479 5478 5478 5477 5476 5476 5477 5477 5478 5480 5483 5484 5486 5488 5491 5493 5495 5497 5499 5501 5503 5506 5509 5513 5516 5520 5522 5525 5527 5530 5533 5535 5537 5539 5541 5543 5545 5547 5548
5540 5539 5539 5538 5537 5536 5535 5534 5533 5532 5531 5530 5529 5527 5526 5525 5524 5522 5521 5520 5519 5518 5517 5516 5515 5514 5512 5510 5508 5506 5504 5502 5500 5498 5497 5495 5494 5492 5491 5489 5487 5485 5484 5482 5480 5478 5476 5475 5473 5473 5472 5471 5470 5470 5470 5471 5471 5473 5475 5476 5478 5480 5482 5484 5486 5488 5490 5492 5494 5497 5500 5504 5507 5511 5514 5517 5520 5523 5526 5528 5531 5533 5535 5537 5540 5542 5543
5537 5536 5535 5534 5534 5532 5531 5530 5529 5528 5526 5525 5524 5522 5521 5520 5520 5519 5518 5518 5517 5516 5515 5514 5512 5511 5509 5508 5506 5504 5502 5500 5498 5496 5494 5493 5491 5490 5489 5487 5485 5483 5481 5479 5477 5475 5473 5471 5469 5468 5467 5465 5465 5465 5465 5465 5466 5467 5468 5469 5470 5472 5474 5476 5477 5479 5481 5483 5486 5489 5492 5495 5499 5502 5506 5509 5512 5516 5519 5522 5525 5527 5530 5532 5534 5536 5538
5534 5533 5532 5531 5530 5529 5527 5526 5525 5523 5522 5521 5520 5519 5518 5518 5517 5517 5516 5516 5515 5513 5512 5511 5511 5510 5508 5507 5505 5503 5501 5499 5497 5495 5494 5492 5491 5489 5488 5486 5485 5483 5480 5478 5475 5473 5471 5469 5467 5465 5464 5462 5461 5461 5460 5460 5461 5461 5461 5462 5463 5465 5467 5468 5470 5472 5474 5476 5479 5481 5484 5488 5491 5494 5498 5501 5505 5509 5513 5516 5519 5522 5524 5527 5529 5531 5533
5530 5530 5529 5528 5526 5525 5523 5522 5521 5519 5518 5517 5517 5516 5516 5516 5515 5515 5514 5513 5512 5511 5511 5510 5510 5509 5507 5506 5505 5503 5501 5500 5498 5496 5495 5493 5491 5490 5488 5486 5485 5482 5480 5477 5475 5473 5471 5469 5466 5464 5462 5461 5459 5459 5458 5457 5457 5456 5456 5457 5458 5459 5461 5462 5464 5466 5468 5471 5473 5475 5477 5481 5484 5487 5491 5495 5499 5503 5507 5510 5513 5516 5519 5522 5524 5526 5528
5527 5526 5525 5524 5522 5521 5520 5518 5517 5516 5516 5515 5515 5515 5514 5514 5513 5513 5512 5511 5510 5510 5510 5510 5509 5508 5507 5506 5505 5504 5502 5501 5499 5497 5496 5494 5492 5490 5488 5486 5484 5482 5480 5478 5475 5473 5471 5469 5466 5464 5462 5460 5458 5458 5457 5456 5455 5454 5454 5453 5454 5454 5456 5457 5459 5461 5464 5466 5467 5469 5471 5474 5478 5482 5486 5491 5495 5498 5502 5505 5509 5512 5514 5517 5519 5521 5523
5523 5523 5522 5521 5519 5517 5516 5516 5515 5514 5514 5514 5513 5513 5513 5512 5512 5511 5510 5509 5509 5509 5509 5509 5509 5508 5507 5506 5505 5504 5503 5501 5499 5498 5496 5494 5493 5491 5488 5486 5484 5482 5480 5478 5476 5474 5472 5470 5467 5465 5462 5460 5459 5458 5457 5456 5454 5453 5452 5451 5451 5452 5453 5454 5456 5457 5459 5461 5463 5465 5467 5469 5474 5478 5483 5487 5491 5495 5498 5502 5505 5507 5510 5512 5514 5516 5519
5520 5520 5519 5517 5516 5515 5514 5513 5513 5512 5512 5512 5512 5512 5511 5511 5510 5509 5509 5508 5508 5508 5508 5508 5508 5508 5507 5507 5506 5504 5503 5502 5500 5498 5496 5495 5493 5491 5489 5487 5485 5483 5481 5479 5477 5475 5473 5471 5469 5467 5464 5462 5461 5460 5459 5457 5454 5452 5450 5450 5450 5451 5451 5452 5453 5455 5456 5458 5459 5461 5463 5466 5471 5476 5481 5486 5490 5492 5495 5498 5500 5503 5506 5509 5511 5513 5516
5518 5517 5516 5514 5513 5512 5512 5511 5511 5511 5511 5511 5510 5510 5510 5509 5508 5508 5507 5507 5507 5507 5507 5507 5507 5507 5507 5506 5506 5505 5504 5502 5500 5498 5497 5495 5493 5491 5489 5488 5486 5484 5483 5481 5479 5477 5475 5473 5471 5468 5466 5465 5463 5462 5461 5459 5457 5454 5451 5450 5450 5451 5451 5452 5452 5453 5454 5456 5457 5459 5461 5465 5469 5473 5478 5484 5489 5491 5492 5494 5498 5501 5504 5507 5509 5512 5514
5515 5514 5513 5512 5511 5510 5510 5509 5509 5509 5509 5509 5509 5509 5509 5508 5507 5507 5506 5506 5506 5506 5506 5506 5506 5506 5506 5506 5506 5505 5504 5503 5501 5499 5497 5495 5493 5492 5490 5489 5488 5486 5484 5483 5481 5479 5477 5475 5472 5470 5468 5467 5466 5465 5463 5462 5460 5458 5455 5453 5453 5452 5452 5453 5453 5454 5455 5456 5458 5460 5462 5466 5469 5473 5477 5483 5487 5490 5491 5494 5497 5500 5503 5505 5508 5510 5512
5512 5511 5510 5509 5508 5508 5508 5508 5508 5508 5508 5508 5508 5508 5508 5507 5506 5506 5505 5505 5505 5505 5505 5505 5505 5506 5506 5506 5505 5505 5504 5503 5502 5501 5498 5496 5494 5493 5492 5491 5489 5488 5487 5485 5484 5482 5479 5477 5474 5472 5471 5470 5468 5467 5466 5464 5463 5462 5461 5459 5458 5457 5456 5456 5456 5457 5458 5459 5461 5463 5466 5469 5472 5475 5479 5483 5487 5489 5492 5495 5497 5500 5502 5505 5507 5509 5510
5510 5509 5508 5507 5506 5506 5506 5506 5506 5506 5507 5507 5507 5507 5507 5506 5506 5505 5505 5504 5504 5504 5504 5504 5505 5505 5505 5505 5505 5504 5504 5503 5502 5501 5499 5497 5496 5495 5494 5492 5491 5490 5489 5487 5485 5483 5481 5479 5477 5475 5474 5473 5471 5469 5468 5467 5466 5466 5465 5464 5463 5462 5462 5462 5462 5462 5463 5464 5466 5468 5471 5473 5476 5479 5482 5485 5488 5490 5493 5495 5498 5500 5502 5504 5506 5508 5509
5508 5507 5506 5505 5504 5504 5504 5504 5505 5505 5505 5505 5506 5506 5506 5505 5505 5504 5504 5503 5503 5503 5503 5503 5504 5504 5504 5504 5504 5504 5503 5503 5502 5501 5500 5499 5498 5496 5495 5494 5493 5492 5490 5488 5486 5484 5483 5481 5480 5478 5477 5476 5474 5472 5471 5470 5469 5469 5468 5468 5468 5467 5467 5467 5468 5468 5469 5470 5472 5473 5475 5477 5480 5482 5485 5487 5489 5491 5493 5496 5498 5500 5502 5503 5505 5507 5508
5505 5504 5504 5503 5502 5502 5502 5503 5503 5504 5504 5504 5504 5504 5504 5504 5504 5504 5503 5502 5502 5502 5502 5502 5503 5503 5503 5504 5503 5503 5503 5502 5502 5501 5500 5500 5499 5498 5496 5495 5494 5493 5492 5490 5488 5486 5485 5483 5482 5481 5480 5479 5477 5476 5474 5473 5473 5472 5471 5471 5471 5471 5471 5471 5472 5473 5473 5474 5476 5477 5479 5481 5482 5484 5486 5488 5490 5492 5494 5496 5497 5499 5501 5503 5504 5506 5508
5503 5502 5501 5501 5500 5500 5501 5501 5502 5502 5502 5503 5503 5503 5503 5503 5503 5502 5502 5502 5501 5501 5501 5501 5502 5502 5502 5502 5502 5502 5502 5502 5501 5501 5500 5500 5499 5498 5497 5496 5495 5494 5494 5492 5491 5489 5486 5485 5484 5483 5482 5481 5480 5479 5477 5477 5476 5476 5475 5474 5474 5474 5474 5474 5475 5476 5477 5478 5479 5480 5481 5483 5484 5486 5487 5489 5491 5492 5494 5495 5497 5499 5500 5502 5504 5505 5507
5500 5500 5499 5498 5498 5499 5499 5500 5500 5501 5501 5501 5502 5502 5502 5502 5502 5501 5501 5501 5501 5500 5501 5501 5501 5501 5501 5501 5501 5501 5501 5501 5501 5500 5500 5500 5499 5499 5498 5497 5496 5496 5495 5494 5493 5491 5489 5487 5486 5485 5484 5483 5482 5481 5480 5479 5479 5478 5478 5478 5477 5477 5477 5477 5478 5478 5479 5480 5481 5482 5483 5484 5485 5487 5488 5489 5491 5492 5494 5495 5497 5498 5500 5501 5503 5504 5506
5498 5498 5497 5496 5496 5497 5497 5498 5499 5499 5500 5500 5500 5501 5501 5501 5501 5501 5500 5500 5500 5500 5500 5500 5500 5500 5500 5500 5500 5500 5500 5500 5500 5500 5499 5499 5499 5498 5498 5497 5497 5496 5496 5495 5494 5493 5491 5490 5489 5488 5487 5486 5485 5484 5483 5482 5481 5481 5480 5480 5480 5480 5480 5480 5481 5481 5482 5482 5483 5484 5484 5485 5486 5487 5488 5490 5491 5492 5494 5495 5497 5498 5499 5501 5502 5503 5505
5495 5495 5495 5494 5494 5494 5495 5495 5496 5497 5498 5498 5499 5499 5500 5500 5500 5500 5500 5500 5500 5500 5500 5500 5500 5500 5499 5499 5499 5499 5499 5499 5499 5499 5498 5498 5498 5498 5497 5497 5497 5496 5496 5495 5494 5494 5493 5492 5491 5490 5489 5488 5487 5486 5486 5485 5484 5484 5483 5483 5483 5483 5483 5483 5483 5483 5484 5484 5484 5485 5486 5486 5487 5488 5489 5490 5491 5492 5494 5495 5496 5498 5499 5500 5501 5503 5505
5492 5492 5492 5492 5492 5492 5492 5493 5494 5495 5496 5497 5497 5498 5498 5498 5499 5499 5499 5499 5499 5499 5499 5499 5499 5499 5499 5499 5499 5499 5499 5499 5498 5498 5498 5498 5497 5497 5497 5497 5496 5496 5496 5495 5495 5494 5493 5492 5492 5491 5491 5490 5489 5489 5488 5487 5487 5487 5486 5486 5485 5485 5485 5485 5485 5485 5485 5485 5486 5486 5487 5487 5488 5488 5489 5490 5491 5492 5494 5495 5496 5497 5499 5500 5502 5503 5505
5490 5489 5489 5489 5489 5489 5490 5491 5491 5493 5494 5494 5495 5496 5496 5497 5497 5498 5498 5498 5498 5499 5499 5498 5498 5499 5499 5498 5498 5498 5498 5498 5498 5498 5498 5497 5497 5497 5497 5497 5496 5496 5495 5495 5494 5494 5493 5493 5492 5492 5492 5491 5491 5490 5490 5489 5489 5488 5488 5488 5488 5487 5487 5487 5487 5487 5487 5487 5487 5487 5488 5488 5489 5489 5490 5491 5492 5493 5494 5495 5496 5498 5499 5501 5502 5503 5505
5487 5487 5487 5487 5487 5487 5487 5488 5489 5490 5491 5492 5493 5493 5494 5494 5495 5496 5496 5496 5497 5497 5497 5497 5497 5498 5498 5498 5498 5498 5498 5498 5497 5497 5497 5497 5497 5497 5497 5496 5496 5496 5495 5495 5494 5494 5493 5493 5492 5492 5492 5492 5491 5491 5491 5490 5490 5490 5490 5489 5489 5489 5489 5489 5489 5489 5489 5489 5489 5489 5489 5489 5490 5491 5491 5492 5493 5493 5494 5495 5497 5498 5499 5500 5501 5503 5504
5484 5484 5484 5484 5484 5484 5484 5485 5486 5487 5488 5489 5490 5491 5491 5492 5492 5493 5494 5494 5495 5495 5496 5496 5496 5496 5496 5497 5497 5497 5497 5497 5497 5496 5496 5496 5496 5496 5496 5496 5496 5495 5495 5495 5494 5494 5493 5493 5493 5492 5492 5492 5491 5491 5491 5491 5490 5490 5490 5490 5490 5490 5490 5490 5490 5490 5490 5491 5491 5491 5491 5491 5492 5492 5493 5493 5494 5495 5495 5496 5497 5498 5499 5500 5501 5502 5503
5480 5480 5480 5481 5481 5481 5481 5482 5483 5484 5484 5485 5487 5488 5488 5489 5490 5490 5491 5492 5492 5493 5493 5494 5494 5494 5495 5495 5495 5495 5496 5496 5496 5495 5495 5495 5495 5495 5495 5495 5495 5494 5494 5494 5494 5493 5493 5493 5493 5492 5492 5492 5491 5491 5491 5491 5491 5490 5490 5490 5490 5490 5490 5491 5491 5491 5491 5491 5492 5492 5492 5493 5493 5493 5494 5494 5495 5495 5496 5497 5497 5498 5498 5499 5500 5501 5501
5477 5477 5477 5477 5478 5478 5478 5479 5479 5480 5481 5482 5483 5484 5485 5486 5487 5487 5488 5489 5490 5490 5491 5491 5492 5493 5493 5493 5493 5494 5494 5494 5494 5494 5494 5494 5494 5494 5494 5494 5493 5493 5493 5493 5493 5492 5492 5492 5492 5492 5491 5491 5491 5491 5491 5490 5490 5490 5490 5490 5490 5490 5490 5490 5490 5490 5491 5491 5491 5492 5492 5492 5493 5493 5494 5494 5495 5495 5496 5496 5497 5497 5498 5498 5499 5499 5500
5474 5474 5474 5474 5474 5475 5475 5475 5476 5476 5477 5479 5480 5481 5482 5483 5484 5485 5485 5486 5487 5487 5488 5489 5490 5490 5491 5491 5491 5492 5492 5492 5493 5493 5493 5493 5493 5493 5492 5492 5492 5492 5492 5491 5491 5491 5491 5490 5490 5490 5490 5490 5490 5490 5490 5490 5489 5489 5489 5489 5489 5489 5489 5489 5489 5489 5489 5490 5490 5491 5491 5491 5491 5492 5492 5493 5493 5493 5494 5494 5495 5495 5495 5496 5496 5497 5497
5471 5471 5471 5471 5471 5472 5472 5472 5473 5473 5474 5475 5476 5478 5479 5480 5481 5482 5483 5483 5484 5484 5485 5486 5486 5487 5488 5488 5489 5489 5490 5490 5490 5491 5491 5491 5491 5491 5491 5491 5490 5490 5490 5490 5490 5490 5489 5489 5489 5488 5488 5488 5487 5487 5487 5487 5487 5488 5488 5488 5487 5487 5487 5487 5487 5487 5487 5488 5488 5488 5489 5489 5489 5489 5490 5490 5490 5491 5491 5491 5492 5492 5492 5492 5493 5493 5493